Regional Weather Roundup
Issued by NWS Sterling, VA

Home | Current Version | Previous Version | Text Only | Print | Product List | Glossary Off
Versions: 1 2 3 4 5 6 7 8 9 10 11 12 13 14 15 16 17 18 19 20 21 22 23 24 25 26 27 28

000
ASUS41 KLWX 220710
RWRLWX

REGIONAL WEATHER ROUNDUP
NATIONAL WEATHER SERVICE BALTIMORE MD/WASHINGTON DC
200 AM EST SUN JAN 22 2017

Note: "FAIR" indicates few or no clouds below 12,000 feet
with no significant weather and/or obstructions to visibility.
 TC=TEMPERATURE CELSIUS

 * =Non NWS site. Station does not report precipitation (e.g. rain,
    snow, etc.), thunder, or fog.

DCZ001-MDZ009-015-VAZ040>042-051-053>054-220800-
WASHINGTON METRO

CITY           SKY/WX    TMP DP  RH WIND       PRES   REMARKS
WASHINGTON NAT CLOUDY    47  46  97 NE8       29.73F FOG
DULLES         FOG       48  47  96 NE7       29.71F VSB 1/8
ANDREWS AFB    FOG       45  45 100 NE6       29.71S VSB 3/4
FT BELVOIR     CLOUDY    48  46  93 CALM      29.72S FOG
QUANTICO       FOG       47  47 100 NE9       29.72F VSB 1/2
COLLEGE PARK*  CLOUDY    45  45 100 CALM      29.73S
LEESBURG*      FOG       48  48 100 N5        29.74S VSB 1/4
GAITHERSBURG*  CLOUDY    46  43  87 E3        29.76F VSB 3/4

$$

MDZ006>007-011-014-220800-
BALTIMORE METRO

CITY           SKY/WX    TMP DP  RH WIND       PRES   REMARKS
BWI AIRPORT    FOG       45  45 100 NE5       29.73F VSB 1/4
MD SCIENCE CTR   N/A     47  44  90 MISG      29.74F
ANNAPOLIS      FOG       45  44  97 CALM      29.73F VSB 3/4
FORT MEADE*    CLOUDY    45  43  93 CALM      29.75F VSB 1

$$

MDZ012-015-019>023-220800-
MARYLAND EASTERN SHORE

CITY           SKY/WX    TMP DP  RH WIND       PRES   REMARKS
OCEAN CITY     RAIN      45  45 100 NE6       29.73F FOG
SALISBURY      LGT RAIN  47  46  97 E6        29.71F
BAY BRIDGE AP* CLOUDY    45  45 100 NE3       29.74F FOG
CAMBRIDGE*     CLOUDY    46  46 100 NE3       29.71F
EASTON*        DRIZZLE   48  46  94 E6        29.77F

$$

MDZ017>025-220800-
SOUTHERN MARYLAND

CITY           SKY/WX    TMP DP  RH WIND       PRES   REMARKS
PATUXENT RIVER LGT RAIN  46  46 100 N6        29.71F VSB 3/4
ST INIGOES     LGT RAIN  47  46  97 N5        29.69F FOG
LEONARDTOWN*   CLOUDY    45  43  93 CALM      29.72F

$$

MDZ003>005-220800-
NORTH CENTRAL MARYLAND

CITY           SKY/WX    TMP DP  RH WIND       PRES   REMARKS
FREDERICK*     FOG       45  45 100 CALM      29.76S VSB 1/2
HAGERSTOWN APT FOG       45  44  97 CALM      29.72S VSB 1/2
WESTMINSTER*   DRIZZLE   45  45 100 CALM      29.73R

$$

MDZ501>502-220800-
WESTERN MARYLAND

CITY           SKY/WX    TMP DP  RH WIND       PRES   REMARKS
OAKLAND*         N/A     46  41  81 CALM      29.72R
CUMBERLAND*    CLOUDY    45  45 100 CALM      29.78S

$$

VAZ025>031-220800-
SHENANDOAH VALLEY

CITY           SKY/WX    TMP DP  RH WIND       PRES   REMARKS
WINCHESTER*    FOG       45  45 100 CALM      29.72S VSB 1/4
FRONT ROYAL*   CLOUDY    45  45 100 CALM      29.71S VSB 1/4
LURAY*         LGT RAIN  45  45 100 N5        29.71R VSB 3/4
NEW MARKET*    CLOUDY    46  44  95 CALM      29.71S
STAUNTON*      CLOUDY    46  45  97 NE5       29.70F FOG
WAYNESBORO*    CLOUDY    47  46  96 N5        29.68F

$$

WVZ021-048>050-054>055-220800-
EASTERN WEST VIRGINIA PANHANDLE

CITY           SKY/WX    TMP DP  RH WIND       PRES   REMARKS
MARTINSBURG    FOG       45  44  97 N3        29.72S VSB 1/4
PETERSBURG*    CLOUDY    46  46  97 CALM      29.74F FOG

$$

VAZ036>039-050-220800-
CENTRAL FOOTHILLS

CITY           SKY/WX    TMP DP  RH WIND       PRES   REMARKS
CHARLOTTESVILL FOG       50  48  93 N3        29.68F VSB 1/2
CULPEPER*      CLOUDY    49  49 100 NE5       29.71S FOG
ORANGE*        FOG       50  50 100 CALM      29.72R VSB 3/4
GORDONSVILLE*  FOG       48  48 100 NE5       29.69S VSB 3/4
WARRENTON*     FOG       49  46  90 NE5       29.70S VSB 1/2

$$

VAZ055>057-220800-
NORTH AND CENTRAL PIEDMONT

CITY           SKY/WX    TMP DP  RH WIND       PRES   REMARKS
FREDERICKSBRG* LGT RAIN  48  48 100 CALM      29.70S VSB 3/4
STAFFORD*      FOG       47  47 100 NE6       29.74S VSB 1

$$

NCZ024-NYZ072-PAZ021-071-VAZ022-071-220800-
OTHER REGIONAL OBSERVATIONS

CITY           SKY/WX    TMP DP  RH WIND       PRES   REMARKS
NEW YORK CITY  CLOUDY    44  44 100 CALM      29.78F FOG
PHILADELPHIA   FOG       45  44  97 S3        29.77S VSB 1/2
PITTSBURGH     CLOUDY    48  47  96 NW7       29.68S
ROANOKE        CLOUDY    50  50 100 CALM      29.70S
RICHMOND       HVY RAIN  49  49 100 N9        29.66F FOG
RALEIGH        FOG       54  53  97 N3        29.65R VSB 1/8

$$

ANZ530>537-220800-
MARINE OBSERVATIONS

STATION/POSITION TIME  TEMP    WIND        PRES
                       AIR SEA DIR/SP/G
                 (UTC) (F)     (DEG/KT/KT) (MB)
THOMAS PT LIGHT  0700   42 40   10/  9/  9   N/A
BALT KEY BRIDGE  0648           60/  5/  5 1007.1F
COVE POINT       0648           40/  8/ 11 1006.8F
LEWISETTA        0648      44   30/  6/  8 1005.2F
SOLOMONS ISLAND  0642      41   10/  3/  5   N/A
PINEY POINT      0648           60/  3/  4   N/A

$$





USA.gov is the U.S. government's official web portal to all federal, state and local government web resources and services.